Location: Allentsteig
(48.6833°N, 15.3167°E)
Time: 16:25:38
(UTC+00:00)

USA 238 DEB - Pass Details

Date: 18 September 2020
Orbit: 1004 x 1208 km, 63.4° (Epoch: 28 October)

Event Time Altitude Azimuth Distance (km) Brightness Sun altitude
Rises 19:32:58 0° 317° (NW) 3,948 8.0 -24.0°
Reaches altitude 10° 19:35:39 10° 314° (NW) 3,015 7.1 -24.3°
Maximum altitude 19:42:42 59° 237° (WSW) 1,331 4.2 -25.3°
Enters shadow 19:45:40 36° 176° (S) 1,767 4.5 -25.7°
